This demonstration page uses our WeatherBlox Daily Observations layout. Learn more.

Left ArrowRight Arrow

41.86663, -103.66717

Hourly Observations for February 5, 2019

Temp ( °F °C ) Dew Point ( °F °C ) Humidity (%) Winds ( mph kmh ) Pressure ( in mb ) Visibility ( mi km ) Precip ( " mm )
12:21 am 00:21 Mostly Cloudy 19 -7.2 9 -12.8 65 65 ESE 13 20 30.01 1016 10 16 N/A
12:53 am 00:53 Cloudy 18 -7.8 9 -12.8 68 68 ESE 15 24 29.91 1013 10 16 N/A
1:53 am 01:53 Cloudy 17 -8.3 8 -13.3 68 68 ESE 15 24 29.91 1013 10 16 N/A
2:53 am 02:53 Cloudy 17 -8.3 9 -12.8 70 70 ESE 16 26 29.88 1012 10 16 N/A
3:03 am 03:03 Cloudy 17 -8.3 9 -12.8 70 70 ESE 14 22 30.00 1016 10 16 N/A
3:53 am 03:53 Cloudy 17 -8.3 11 -11.7 77 77 E 16 26 29.85 1011 10 16 N/A
4:53 am 04:53 Cloudy 17 -8.3 11 -11.7 77 77 ESE 14 22 29.86 1011 10 16 N/A
5:53 am 05:53 Cloudy 17 -8.3 11 -11.7 77 77 ESE 18 30 29.84 1011 10 16 N/A
6:05 am 06:05 Cloudy 17 -8.3 12 -11.1 80 80 ESE 17 28 29.95 1014 10 16 N/A
6:53 am 06:53 Cloudy 17 -8.3 13 -10.6 84 84 ESE 20 31 29.85 1011 10 16 N/A
7:53 am 07:53 Cloudy 17 -8.3 14 -10 88 88 ESE 16 26 29.85 1011 10 16 N/A
8:53 am 08:53 Cloudy 18 -7.8 15 -9.4 88 88 E 16 26 29.86 1011 10 16 N/A
9:53 am 09:53 Cloudy 19 -7.2 15 -9.4 84 84 ESE 16 26 29.84 1010 10 16 N/A
10:02 am 10:02 Cloudy 19 -7.2 15 -9.4 84 84 ESE 17 28 29.93 1013 10 16 N/A
10:35 am 10:35 Cloudy 21 -6.1 16 -8.9 81 81 ESE 17 28 29.90 1013 10 16 N/A
10:53 am 10:53 Cloudy 21 -6.1 16 -8.9 81 81 ESE 16 26 29.82 1010 10 16 N/A
11:53 am 11:53 Mostly Cloudy with Light Snow 27 -2.8 20 -6.7 75 75 ESE 17 28 29.76 1008 10 16 N/A
12:53 pm 12:53 Mostly Sunny 33 0.6 22 -5.6 64 64 ESE 16 26 29.72 1006 10 16 N/A
1:53 pm 13:53 Sunny 35 1.7 24 -4.4 64 64 ESE 13 20 29.71 1006 10 16 N/A
2:53 pm 14:53 Sunny 37 2.8 24 -4.4 59 59 E 16 26 29.68 1005 10 16 N/A
3:53 pm 15:53 Mostly Cloudy 35 1.7 23 -5 61 61 ESE 16 26 29.71 1006 10 16 N/A
4:53 pm 16:53 Sunny 34 1.1 23 -5 64 64 ESE 17 28 29.70 1006 10 16 N/A
5:36 pm 17:36 Clear 29 -1.7 21 -6.1 72 72 NE 12 19 29.81 1009 10 16 N/A
5:53 pm 17:53 Clear 29 -1.7 21 -6.1 72 72 E 13 20 29.79 1009 10 16 N/A
6:53 pm 18:53 Clear 26 -3.3 20 -6.7 78 78 E 15 24 29.79 1009 10 16 N/A
7:53 pm 19:53 Clear 23 -5 19 -7.2 85 85 E 13 20 29.81 1009 10 16 N/A
8:53 pm 20:53 Clear 21 -6.1 18 -7.8 88 88 E 14 22 29.83 1010 10 16 N/A
9:53 pm 21:53 Clear 19 -7.2 17 -8.3 92 92 E 10 17 29.83 1010 10 16 N/A
10:38 pm 22:38 Partly Cloudy 18 -8 18 -8 100 100 E 14 22 29.93 1014 10 16 N/A
10:46 pm 22:46 Mostly Cloudy 19 -7 18 -8 93 93 ESE 18 30 29.91 1013 10 16 N/A
10:53 pm 22:53 Mostly Cloudy 19 -7.2 18 -7.8 96 96 ESE 20 31 29.82 1010 10 16 N/A
11:49 pm 23:49 Cloudy 19 -7 18 -8 93 93 SE 17 28 29.93 1014 7 11 N/A
11:53 pm 23:53 Cloudy with Mist and Fog 19 -7.2 18 -7.8 96 96 SE 17 28 29.82 1010 6 10 N/A

Powered by AerisWeather